| time (UTC) | temp C | wind direction | speed KPH | gust KPH | rain 1hr cm | rain 24hr cm | rain mn cm | humidity % | barometer mb |
| 20260506073046 | 25 | 0 | 1.6 | 9.7 | 0.84 | 2.59 | 2.59 | 93 | 1010.6 |
| 20260506071544 | 26 | 201 | 3.2 | 6.4 | 1.24 | 2.46 | 2.46 | 93 | 1010.4 |
| 20260506061539 | 26 | 84 | 1.6 | 4.8 | 1.14 | 1.17 | 1.17 | 92 | 1010.4 |
| 20260506044540 | 30 | 180 | 3.2 | 6.4 | 0.00 | 0.05 | 0.03 | 80 | 1010.6 |
| 20260506043044 | 30 | 55 | 3.2 | 6.4 | 0.00 | 0.05 | 0.03 | 81 | 1010.8 |
| 20260506041541 | 29 | 0 | 1.6 | 4.8 | 0.00 | 0.05 | 0.03 | 80 | 1011.1 |
| 20260506040049 | 29 | 316 | 1.6 | 4.8 | 0.00 | 0.05 | 0.03 | 79 | 1011.4 |
| 20260506034545 | 29 | 319 | 1.6 | 4.8 | 0.00 | 0.05 | 0.03 | 78 | 1011.4 |
| 20260506033042 | 29 | 325 | 1.6 | 4.8 | 0.00 | 0.05 | 0.03 | 77 | 1011.4 |
| 20260506031542 | 30 | 252 | 0.0 | 8.0 | 0.00 | 0.05 | 0.03 | 78 | 1011.4 |
| 20260506030040 | 30 | 274 | 1.6 | 6.4 | 0.00 | 0.05 | 0.03 | 80 | 1011.7 |
| 20260506024548 | 30 | 336 | 1.6 | 8.0 | 0.00 | 0.05 | 0.03 | 75 | 1011.8 |
| 20260506023100 | 30 | 290 | 1.6 | 4.8 | 0.00 | 0.05 | 0.03 | 76 | 1012.0 |
| 20260506021604 | 30 | 360 | 1.6 | 6.4 | 0.00 | 0.05 | 0.03 | 73 | 1011.8 |
| 20260506020039 | 30 | 287 | 1.6 | 8.0 | 0.00 | 0.05 | 0.03 | 72 | 1011.7 |
| 20260506014547 | 31 | 239 | 1.6 | 6.4 | 0.00 | 0.05 | 0.03 | 73 | 1012.0 |
| 20260506013057 | 30 | 0 | 1.6 | 6.4 | 0.00 | 0.05 | 0.03 | 70 | 1011.9 |
| 20260506011559 | 30 | 195 | 1.6 | 4.8 | 0.00 | 0.05 | 0.03 | 74 | 1012.0 |
| 20260506010040 | 30 | 302 | 1.6 | 4.8 | 0.00 | 0.05 | 0.03 | 73 | 1012.3 |
| 20260506004539 | 28 | 195 | 1.6 | 6.4 | 0.00 | 0.05 | 0.03 | 76 | 1012.2 |
| 20260506003045 | 28 | 161 | 1.6 | 6.4 | 0.00 | 0.05 | 0.03 | 77 | 1012.4 |
| 20260506001547 | 29 | 196 | 0.0 | 4.8 | 0.00 | 0.05 | 0.03 | 77 | 1012.3 |
| 20260506000049 | 28 | 0 | 0.0 | 3.2 | 0.00 | 0.05 | 0.03 | 78 | 1012.3 |
| 20260505234539 | 28 | 305 | 0.0 | 3.2 | 0.00 | 0.05 | 0.03 | 80 | 1012.4 |
| 20260505233045 | 27 | 242 | 0.0 | 1.6 | 0.00 | 0.05 | 0.03 | 80 | 1012.3 |
| 20260505231603 | 26 | 0 | 0.0 | 1.6 | 0.00 | 0.05 | 0.03 | 83 | 1012.4 |
| 20260505230041 | 25 | 0 | 0.0 | 3.2 | 0.00 | 0.05 | 0.03 | 83 | 1011.9 |
| 20260505224539 | 24 | 0 | 0.0 | 3.2 | 0.00 | 0.05 | 0.03 | 91 | 1012.0 |
| 20260505223040 | 23 | 0 | 0.0 | 0.0 | 0.00 | 0.05 | 0.03 | 94 | 1011.9 |
| 20260505221547 | 22 | 0 | 0.0 | 0.0 | 0.00 | 0.05 | 0.03 | 94 | 1011.8 |
| 20260505220048 | 22 | 0 | 0.0 | 0.0 | 0.00 | 0.05 | 0.03 | 94 | 1011.6 |
| 20260505214554 | 22 | 0 | 0.0 | 0.0 | 0.00 | 0.05 | 0.03 | 94 | 1011.6 |
| 20260505213044 | 22 | 0 | 0.0 | 0.0 | 0.00 | 0.05 | 0.03 | 94 | 1011.7 |
| 20260505211539 | 22 | 0 | 0.0 | 0.0 | 0.00 | 0.05 | 0.03 | 94 | 1011.5 |
| 20260505210047 | 22 | 0 | 0.0 | 0.0 | 0.00 | 0.05 | 0.03 | 94 | 1011.5 |
| 20260505204545 | 22 | 0 | 0.0 | 0.0 | 0.00 | 0.05 | 0.03 | 94 | 1011.5 |
| 20260505203106 | 22 | 0 | 0.0 | 0.0 | 0.00 | 0.05 | 0.03 | 94 | 1011.2 |
| 20260505201549 | 22 | 0 | 0.0 | 0.0 | 0.03 | 0.05 | 0.03 | 94 | 1011.1 |
| 20260505200052 | 22 | 0 | 0.0 | 0.0 | 0.03 | 0.05 | 0.03 | 94 | 1011.2 |
| 20260505194550 | 22 | 0 | 0.0 | 1.6 | 0.03 | 0.05 | 0.03 | 94 | 1011.1 |
| 20260505193049 | 22 | 27 | 0.0 | 1.6 | 0.03 | 0.05 | 0.03 | 94 | 1011.0 |
| 20260505191601 | 22 | 0 | 0.0 | 1.6 | 0.00 | 0.03 | 0.00 | 94 | 1011.0 |
| 20260505190053 | 22 | 0 | 0.0 | 3.2 | 0.00 | 0.03 | 0.00 | 94 | 1010.8 |
| 20260505184544 | 22 | 0 | 0.0 | 0.0 | 0.00 | 0.03 | 0.00 | 94 | 1011.0 |
| 20260505183047 | 22 | 0 | 0.0 | 0.0 | 0.00 | 0.03 | 0.00 | 94 | 1010.9 |
| 20260505181547 | 22 | 0 | 0.0 | 0.0 | 0.00 | 0.03 | 0.00 | 94 | 1010.8 |
| 20260505180053 | 22 | 0 | 0.0 | 0.0 | 0.00 | 0.03 | 0.00 | 94 | 1010.9 |
| 20260505174544 | 22 | 0 | 0.0 | 0.0 | 0.00 | 0.05 | 0.00 | 94 | 1011.2 |
| 20260505173039 | 22 | 0 | 0.0 | 1.6 | 0.00 | 0.05 | 0.00 | 94 | 1011.5 |
| 20260505171544 | 22 | 0 | 0.0 | 1.6 | 0.00 | 0.05 | 0.00 | 94 | 1011.7 |
| 20260505170100 | 22 | 0 | 0.0 | 3.2 | 0.00 | 0.05 | 0.00 | 93 | 1011.6 |
| 20260505164547 | 22 | 0 | 0.0 | 1.6 | 0.00 | 0.05 | 0.00 | 93 | 1011.9 |
| 20260505163042 | 22 | 0 | 0.0 | 3.2 | 0.00 | 0.05 | 0.00 | 93 | 1012.2 |
| 20260505161540 | 22 | 0 | 0.0 | 1.6 | 0.00 | 0.05 | 0.00 | 93 | 1012.2 |
| 20260505153052 | 23 | 18 | 0.0 | 3.2 | 0.00 | 0.05 | 0.05 | 93 | 1012.4 |
| 20260505151556 | 23 | 0 | 0.0 | 1.6 | 0.00 | 0.05 | 0.05 | 93 | 1012.3 |
| 20260505124543 | 24 | 32 | 0.0 | 3.2 | 0.00 | 0.05 | 0.05 | 93 | 1011.7 |
| 20260505123040 | 24 | 0 | 0.0 | 3.2 | 0.00 | 0.05 | 0.05 | 93 | 1011.8 |
| 20260505121543 | 24 | 0 | 0.0 | 1.6 | 0.00 | 0.05 | 0.05 | 93 | 1011.8 |
| 20260505120046 | 25 | 0 | 0.0 | 0.0 | 0.00 | 0.05 | 0.05 | 92 | 1011.4 |
| 20260505114545 | 25 | 0 | 0.0 | 0.0 | 0.00 | 0.05 | 0.05 | 93 | 1011.4 |
| 20260505113045 | 25 | 0 | 1.6 | 3.2 | 0.00 | 0.05 | 0.05 | 93 | 1011.2 |
| 20260505111544 | 25 | 0 | 0.0 | 1.6 | 0.00 | 0.05 | 0.05 | 93 | 1011.2 |
| 20260505101553 | 26 | 340 | 0.0 | 3.2 | 0.00 | 0.05 | 0.05 | 91 | 1010.8 |
| 20260505100041 | 26 | 0 | 0.0 | 1.6 | 0.00 | 0.05 | 0.05 | 90 | 1010.7 |
| 20260505094540 | 27 | 0 | 0.0 | 0.0 | 0.00 | 0.05 | 0.05 | 89 | 1010.5 |
| 20260505093043 | 27 | 0 | 0.0 | 1.6 | 0.00 | 0.05 | 0.05 | 87 | 1010.1 |
| 20260505091543 | 27 | 315 | 0.0 | 3.2 | 0.00 | 0.05 | 0.05 | 86 | 1009.8 |
| 20260505090057 | 28 | 222 | 0.0 | 3.2 | 0.00 | 0.05 | 0.05 | 84 | 1009.6 |
| 20260505084548 | 28 | 0 | 1.6 | 3.2 | 0.00 | 0.43 | 0.05 | 82 | 1009.7 |
| 20260505083055 | 28 | 0 | 0.0 | 4.8 | 0.00 | 0.43 | 0.05 | 82 | 1009.5 |
| 20260505081548 | 28 | 0 | 1.6 | 6.4 | 0.00 | 0.43 | 0.05 | 81 | 1009.4 |